Time,TemperatureF,DewpointF,PressureIn,WindDirection,WindDirectionDegrees,WindSpeedMPH,WindSpeedGustMPH,Humidity,HourlyPrecipIn,Conditions,Clouds,dailyrainin,SoftwareType,DateUTC
2013-08-17 00:01:00,63.0,60.3,30.13,South,171,0.0,0.0,91,0.00,,OVC250,0.00,VWS V14.01,2013-08-17 04:01:00,
2013-08-17 00:02:00,63.0,60.0,30.13,South,171,0.0,0.0,90,0.00,,OVC250,0.00,VWS V14.01,2013-08-17 04:02:00,
2013-08-17 00:05:00,63.0,60.3,30.13,South,171,0.0,0.0,91,0.00,,OVC250,0.00,VWS V14.01,2013-08-17 04:05:00,
2013-08-17 00:06:00,63.0,60.3,30.13,South,171,0.0,0.0,91,0.00,,OVC250,0.00,VWS V14.01,2013-08-17 04:06:00,
2013-08-17 00:11:00,63.1,60.1,30.13,SSE,150,0.0,0.0,90,0.00,,OVC250,0.00,VWS V14.01,2013-08-17 04:11:00,
2013-08-17 00:16:00,63.2,60.2,30.13,SSE,150,0.0,0.0,90,0.00,,OVC250,0.00,VWS V14.01,2013-08-17 04:16:00,
2013-08-17 00:21:00,63.3,60.3,30.13,SSW,207,0.0,0.0,90,0.00,,OVC250,0.00,VWS V14.01,2013-08-17 04:21:00,
2013-08-17 00:26:00,63.4,60.7,30.13,SSW,207,0.0,0.0,91,0.00,,OVC250,0.00,VWS V14.01,2013-08-17 04:26:00,
2013-08-17 00:31:00,63.4,60.4,30.13,SSW,207,0.0,0.0,90,0.00,,OVC250,0.00,VWS V14.01,2013-08-17 04:31:00,
2013-08-17 00:36:00,63.4,60.4,30.13,SSW,207,0.0,0.0,90,0.00,,OVC250,0.00,VWS V14.01,2013-08-17 04:36:00,
2013-08-17 00:41:00,63.4,60.1,30.13,SSW,207,0.0,0.0,89,0.00,,OVC250,0.00,VWS V14.01,2013-08-17 04:41:00,
2013-08-17 00:47:00,63.4,60.1,30.13,SE,144,0.0,0.0,89,0.00,,OVC250,0.00,VWS V14.01,2013-08-17 04:47:00,
2013-08-17 00:52:00,63.4,60.4,30.12,SE,144,0.0,0.0,90,0.00,,OVC250,0.00,VWS V14.01,2013-08-17 04:52:00,
2013-08-17 00:57:00,63.5,60.8,30.12,SE,144,0.0,0.0,91,0.00,,OVC250,0.00,VWS V14.01,2013-08-17 04:57:00,
2013-08-17 01:02:00,63.4,60.4,30.13,South,179,0.0,0.0,90,0.00,,OVC050,0.00,VWS V14.01,2013-08-17 05:02:00,
2013-08-17 01:07:00,63.3,60.6,30.13,South,179,0.0,0.0,91,0.00,,OVC050,0.00,VWS V14.01,2013-08-17 05:07:00,
2013-08-17 01:12:00,63.2,60.2,30.12,South,179,0.0,0.0,90,0.00,,OVC050,0.00,VWS V14.01,2013-08-17 05:12:00,
2013-08-17 01:17:00,63.1,60.4,30.13,South,179,0.0,0.0,91,0.00,,OVC050,0.00,VWS V14.01,2013-08-17 05:17:00,
2013-08-17 01:22:00,63.1,60.7,30.12,South,179,0.0,0.0,92,0.01,,OVC050,0.01,VWS V14.01,2013-08-17 05:22:00,
2013-08-17 01:27:00,63.0,61.0,30.12,South,179,0.0,0.0,93,0.01,,OVC050,0.01,VWS V14.01,2013-08-17 05:27:00,
2013-08-17 01:32:00,62.9,60.5,30.12,South,179,0.0,0.0,92,0.02,,OVC050,0.02,VWS V14.01,2013-08-17 05:32:00,
2013-08-17 01:37:00,62.8,60.8,30.12,South,179,0.0,0.0,93,0.05,,OVC050,0.05,VWS V14.01,2013-08-17 05:37:00,
2013-08-17 01:42:00,62.6,60.5,30.12,South,179,0.0,0.0,93,0.07,,OVC050,0.07,VWS V14.01,2013-08-17 05:42:00,
2013-08-17 01:47:00,62.5,60.5,30.12,South,179,0.0,0.0,93,0.07,,OVC050,0.07,VWS V14.01,2013-08-17 05:47:00,
2013-08-17 01:52:00,62.4,60.3,30.12,South,179,0.0,0.0,93,0.07,,OVC050,0.07,VWS V14.01,2013-08-17 05:52:00,
2013-08-17 01:57:00,62.3,60.6,30.12,South,179,0.0,0.0,94,0.08,,OVC050,0.08,VWS V14.01,2013-08-17 05:57:00,
2013-08-17 02:02:00,62.2,60.5,30.13,South,179,0.0,0.0,94,0.09,,-RA,0.09,VWS V14.01,2013-08-17 06:02:00,
2013-08-17 02:07:00,62.2,60.8,30.13,South,179,0.0,0.0,95,0.10,,-RA,0.10,VWS V14.01,2013-08-17 06:07:00,
2013-08-17 02:12:00,62.1,60.7,30.13,South,179,0.0,0.0,95,0.10,,-RA,0.10,VWS V14.01,2013-08-17 06:12:00,
2013-08-17 02:17:00,62.1,60.7,30.13,South,179,0.0,0.0,95,0.12,,-RA,0.12,VWS V14.01,2013-08-17 06:17:00,
2013-08-17 02:22:00,62.0,60.6,30.12,South,179,0.0,0.0,95,0.11,,-RA,0.12,VWS V14.01,2013-08-17 06:22:00,
2013-08-17 02:27:00,61.9,60.5,30.12,South,179,0.0,0.0,95,0.12,,-RA,0.13,VWS V14.01,2013-08-17 06:27:00,
2013-08-17 02:32:00,61.8,60.7,30.12,South,179,0.0,0.0,96,0.11,,-RA,0.13,VWS V14.01,2013-08-17 06:32:00,
2013-08-17 02:37:00,61.8,60.7,30.12,South,179,0.0,0.0,96,0.08,,-RA,0.13,VWS V14.01,2013-08-17 06:37:00,
2013-08-17 02:42:00,61.8,60.7,30.12,South,179,0.0,0.0,96,0.06,,-RA,0.13,VWS V14.01,2013-08-17 06:42:00,
2013-08-17 02:47:00,61.7,60.5,30.11,South,179,0.0,0.0,96,0.06,,-RA,0.13,VWS V14.01,2013-08-17 06:47:00,
2013-08-17 02:52:00,61.7,60.5,30.11,South,179,0.0,0.0,96,0.06,,-RA,0.13,VWS V14.01,2013-08-17 06:52:00,
2013-08-17 02:57:00,61.6,60.5,30.11,South,179,0.0,0.0,96,0.05,,-RA,0.13,VWS V14.01,2013-08-17 06:57:00,
2013-08-17 03:02:00,61.5,60.3,30.11,South,179,0.0,0.0,96,0.05,,-RA,0.14,VWS V14.01,2013-08-17 07:02:00,
2013-08-17 03:07:00,61.5,60.3,30.11,South,179,0.0,0.0,96,0.04,,-RA,0.14,VWS V14.01,2013-08-17 07:07:00,
2013-08-17 03:12:00,61.5,60.3,30.11,South,179,0.0,0.0,96,0.04,,-RA,0.14,VWS V14.01,2013-08-17 07:12:00,
2013-08-17 03:17:00,61.4,60.2,30.11,South,179,0.0,0.0,96,0.03,,-RA,0.14,VWS V14.01,2013-08-17 07:17:00,
2013-08-17 03:22:00,61.4,60.2,30.11,South,179,0.0,0.0,96,0.02,,-RA,0.14,VWS V14.01,2013-08-17 07:22:00,
2013-08-17 03:27:00,61.4,60.2,30.11,South,179,0.0,0.0,96,0.02,,-RA,0.14,VWS V14.01,2013-08-17 07:27:00,
2013-08-17 03:32:00,61.3,60.2,30.11,South,179,0.0,0.0,96,0.01,,-RA,0.14,VWS V14.01,2013-08-17 07:32:00,
2013-08-17 03:37:00,61.3,60.2,30.11,South,179,0.0,0.0,96,0.01,,-RA,0.14,VWS V14.01,2013-08-17 07:37:00,
2013-08-17 03:42:00,61.3,60.2,30.11,South,179,0.0,0.0,96,0.01,,-RA,0.14,VWS V14.01,2013-08-17 07:42:00,
2013-08-17 03:47:00,61.3,60.2,30.11,South,179,0.0,0.0,96,0.05,,-RA,0.18,VWS V14.01,2013-08-17 07:47:00,
2013-08-17 03:52:00,61.3,60.4,30.10,South,179,0.0,0.0,97,0.06,,-RA,0.19,VWS V14.01,2013-08-17 07:52:00,
2013-08-17 03:57:00,61.2,60.3,30.10,WSW,251,0.0,0.0,97,0.10,,-RA,0.23,VWS V14.01,2013-08-17 07:57:00,
2013-08-17 04:02:00,61.2,60.3,30.10,WSW,251,0.0,0.0,97,0.11,,-RA,0.25,VWS V14.01,2013-08-17 08:02:00,
2013-08-17 04:07:00,61.2,60.3,30.10,WSW,251,0.0,0.0,97,0.12,,-RA,0.26,VWS V14.01,2013-08-17 08:07:00,
2013-08-17 04:12:00,61.3,60.4,30.10,WSW,251,0.0,0.0,97,0.12,,-RA,0.26,VWS V14.01,2013-08-17 08:12:00,
2013-08-17 04:17:00,61.2,60.3,30.10,WSW,251,0.0,0.0,97,0.12,,-RA,0.26,VWS V14.01,2013-08-17 08:17:00,
2013-08-17 04:22:00,61.1,60.0,30.11,WSW,251,0.0,0.0,96,0.12,,-RA,0.26,VWS V14.01,2013-08-17 08:22:00,
2013-08-17 04:27:00,61.2,60.3,30.11,WSW,251,0.0,0.0,97,0.12,,-RA,0.26,VWS V14.01,2013-08-17 08:27:00,
2013-08-17 04:32:00,61.2,60.3,30.11,WSW,251,0.0,0.0,97,0.12,,-RA,0.26,VWS V14.01,2013-08-17 08:32:00,
2013-08-17 04:37:00,61.2,60.3,30.11,WSW,251,0.0,0.0,97,0.12,,-RA,0.26,VWS V14.01,2013-08-17 08:37:00,
2013-08-17 04:42:00,61.2,60.3,30.11,WSW,251,0.0,0.0,97,0.12,,-RA,0.26,VWS V14.01,2013-08-17 08:42:00,
2013-08-17 04:47:00,61.3,60.4,30.11,WSW,251,0.0,0.0,97,0.08,,-RA,0.26,VWS V14.01,2013-08-17 08:47:00,
2013-08-17 04:52:00,61.3,60.4,30.11,WSW,251,0.0,0.0,97,0.09,,-RA,0.27,VWS V14.01,2013-08-17 08:52:00,
2013-08-17 04:57:00,61.3,60.4,30.11,WSW,251,0.0,0.0,97,0.05,,-RA,0.27,VWS V14.01,2013-08-17 08:57:00,
2013-08-17 05:02:00,61.3,60.4,30.11,WSW,251,0.0,0.0,97,0.02,,OVC041,0.27,VWS V14.01,2013-08-17 09:02:00,
2013-08-17 05:07:00,61.2,60.3,30.11,WSW,251,0.0,0.0,97,0.01,,OVC041,0.27,VWS V14.01,2013-08-17 09:07:00,
2013-08-17 05:12:00,61.2,60.3,30.11,WSW,251,0.0,0.0,97,0.01,,OVC041,0.27,VWS V14.01,2013-08-17 09:12:00,
2013-08-17 05:17:00,61.3,60.4,30.10,WSW,251,0.0,0.0,97,0.01,,OVC041,0.27,VWS V14.01,2013-08-17 09:17:00,
2013-08-17 05:22:00,61.3,60.4,30.11,SW,234,0.0,0.0,97,0.01,,OVC041,0.27,VWS V14.01,2013-08-17 09:22:00,
2013-08-17 05:27:00,61.3,60.4,30.11,SW,234,0.0,0.0,97,0.01,,OVC041,0.27,VWS V14.01,2013-08-17 09:27:00,
2013-08-17 05:32:00,61.2,60.3,30.11,SW,234,0.0,0.0,97,0.01,,RA,0.27,VWS V14.01,2013-08-17 09:32:00,
2013-08-17 05:37:00,61.2,60.3,30.11,SW,234,0.0,0.0,97,0.01,,RA,0.27,VWS V14.01,2013-08-17 09:37:00,
2013-08-17 05:42:00,61.2,60.3,30.11,SW,234,0.0,0.0,97,0.01,,RA,0.27,VWS V14.01,2013-08-17 09:42:00,
2013-08-17 05:47:00,61.2,60.3,30.11,SW,231,0.0,0.0,97,0.01,,RA,0.27,VWS V14.01,2013-08-17 09:47:00,
2013-08-17 05:52:00,61.2,60.3,30.11,SW,231,0.0,0.0,97,0.00,,RA,0.27,VWS V14.01,2013-08-17 09:52:00,
2013-08-17 05:57:00,61.2,60.3,30.11,SW,231,0.0,0.0,97,0.00,,RA,0.27,VWS V14.01,2013-08-17 09:57:00,
2013-08-17 06:02:00,61.2,60.3,30.12,East,101,0.0,0.0,97,0.00,,-RA,0.27,VWS V14.01,2013-08-17 10:02:00,
2013-08-17 06:07:00,61.3,60.4,30.11,South,173,0.0,0.0,97,0.00,,-RA,0.27,VWS V14.01,2013-08-17 10:07:00,
2013-08-17 06:12:00,61.4,60.5,30.11,South,172,0.0,0.0,97,0.00,,-RA,0.27,VWS V14.01,2013-08-17 10:12:00,
2013-08-17 06:17:00,61.3,60.4,30.11,South,172,0.0,0.0,97,0.00,,-RA,0.27,VWS V14.01,2013-08-17 10:17:00,
2013-08-17 06:22:00,61.2,60.3,30.12,South,172,0.0,0.0,97,0.00,,-RA,0.27,VWS V14.01,2013-08-17 10:22:00,
2013-08-17 06:27:00,61.2,60.3,30.12,South,172,0.0,0.0,97,0.01,,-RA,0.28,VWS V14.01,2013-08-17 10:27:00,
2013-08-17 06:32:00,61.1,60.2,30.12,South,187,0.0,0.0,97,0.01,,RA,0.28,VWS V14.01,2013-08-17 10:32:00,
2013-08-17 06:37:00,61.1,60.2,30.12,South,187,0.0,0.0,97,0.01,,RA,0.28,VWS V14.01,2013-08-17 10:37:00,
2013-08-17 06:42:00,61.1,60.2,30.12,South,187,0.0,0.0,97,0.01,,RA,0.28,VWS V14.01,2013-08-17 10:42:00,
2013-08-17 06:47:00,61.1,60.2,30.13,South,187,0.0,0.0,97,0.02,,RA,0.29,VWS V14.01,2013-08-17 10:47:00,
2013-08-17 06:52:00,61.0,60.2,30.12,South,187,0.0,0.0,97,0.02,,RA,0.29,VWS V14.01,2013-08-17 10:52:00,
2013-08-17 06:57:00,61.1,60.2,30.12,South,187,0.0,0.0,97,0.02,,RA,0.29,VWS V14.01,2013-08-17 10:57:00,
2013-08-17 07:02:00,61.0,60.2,30.12,South,187,0.0,0.0,97,0.02,,-RA,0.29,VWS V14.01,2013-08-17 11:02:00,
2013-08-17 07:07:00,61.0,60.2,30.12,South,187,0.0,0.0,97,0.02,,-RA,0.29,VWS V14.01,2013-08-17 11:07:00,
2013-08-17 07:12:00,61.0,60.2,30.12,South,187,0.0,0.0,97,0.02,,-RA,0.29,VWS V14.01,2013-08-17 11:12:00,
2013-08-17 07:17:00,61.0,60.2,30.13,SE,130,0.0,0.0,97,0.02,,-RA,0.29,VWS V14.01,2013-08-17 11:17:00,
2013-08-17 07:22:00,61.1,60.2,30.13,SW,218,0.0,0.0,97,0.02,,-RA,0.29,VWS V14.01,2013-08-17 11:22:00,
2013-08-17 07:27:00,61.1,60.2,30.13,SW,218,0.0,0.0,97,0.02,,-RA,0.30,VWS V14.01,2013-08-17 11:27:00,
2013-08-17 07:32:00,61.0,60.2,30.13,SSE,153,0.0,0.0,97,0.02,,-RA,0.30,VWS V14.01,2013-08-17 11:32:00,
2013-08-17 07:37:00,61.0,60.2,30.13,SSW,198,0.0,0.0,97,0.02,,-RA,0.30,VWS V14.01,2013-08-17 11:37:00,
2013-08-17 07:42:00,61.0,60.2,30.13,SSW,198,0.0,0.0,97,0.02,,-RA,0.30,VWS V14.01,2013-08-17 11:42:00,
2013-08-17 07:47:00,61.0,60.2,30.13,SSW,198,0.0,0.0,97,0.01,,-RA,0.30,VWS V14.01,2013-08-17 11:47:00,
2013-08-17 07:52:00,61.0,60.2,30.13,SSW,198,0.0,0.0,97,0.01,,-RA,0.30,VWS V14.01,2013-08-17 11:52:00,
2013-08-17 07:57:00,61.0,60.2,30.13,SSW,198,0.0,0.0,97,0.01,,-RA,0.30,VWS V14.01,2013-08-17 11:57:00,
2013-08-17 08:02:00,61.1,60.2,30.13,SSW,198,0.0,0.0,97,0.01,,OVC056,0.30,VWS V14.01,2013-08-17 12:02:00,
2013-08-17 08:07:00,61.1,60.2,30.13,SSW,198,0.0,0.0,97,0.01,,OVC056,0.30,VWS V14.01,2013-08-17 12:07:00,
2013-08-17 08:10:00,61.1,60.2,30.13,SSW,198,0.0,0.0,97,0.01,,OVC056,0.30,VWS V14.01,2013-08-17 12:10:00,
2013-08-17 08:16:00,61.2,60.3,30.13,SSW,198,0.0,0.0,97,0.01,,OVC056,0.30,VWS V14.01,2013-08-17 12:16:00,
2013-08-17 08:21:00,61.3,60.4,30.13,SSE,159,0.0,0.0,97,0.01,,OVC056,0.30,VWS V14.01,2013-08-17 12:21:00,
2013-08-17 08:26:00,61.3,60.4,30.13,SSE,159,0.0,0.0,97,0.01,,OVC056,0.30,VWS V14.01,2013-08-17 12:26:00,
2013-08-17 08:31:00,61.3,60.4,30.13,East,101,0.0,0.0,97,0.00,,OVC056,0.30,VWS V14.01,2013-08-17 12:31:00,
2013-08-17 08:36:00,61.4,60.5,30.13,East,101,0.0,0.0,97,0.00,,OVC056,0.30,VWS V14.01,2013-08-17 12:36:00,
2013-08-17 08:41:00,61.4,60.5,30.12,East,101,0.0,0.0,97,0.00,,OVC056,0.30,VWS V14.01,2013-08-17 12:41:00,
2013-08-17 08:47:00,61.5,60.6,30.12,ENE,62,0.0,0.0,97,0.00,,OVC056,0.30,VWS V14.01,2013-08-17 12:47:00,
2013-08-17 08:52:00,61.6,60.7,30.13,SSW,210,0.0,0.0,97,0.00,,OVC056,0.30,VWS V14.01,2013-08-17 12:52:00,
2013-08-17 08:57:00,61.6,60.7,30.13,SSW,210,0.0,0.0,97,0.00,,OVC056,0.30,VWS V14.01,2013-08-17 12:57:00,
2013-08-17 09:02:00,61.7,60.8,30.14,SSW,210,1.0,0.0,97,0.00,,-RA,0.30,VWS V14.01,2013-08-17 13:02:00,
2013-08-17 09:08:00,61.7,60.8,30.14,SW,214,0.0,0.0,97,0.00,,-RA,0.30,VWS V14.01,2013-08-17 13:08:00,
2013-08-17 09:13:00,61.7,60.8,30.14,SSW,213,0.0,0.0,97,0.00,,-RA,0.30,VWS V14.01,2013-08-17 13:13:00,
2013-08-17 09:18:00,61.8,60.9,30.14,SW,214,0.0,0.0,97,0.00,,-RA,0.30,VWS V14.01,2013-08-17 13:18:00,
2013-08-17 09:23:00,61.8,60.9,30.14,SW,214,0.0,0.0,97,0.00,,-RA,0.30,VWS V14.01,2013-08-17 13:23:00,
2013-08-17 09:28:00,61.8,60.9,30.14,SW,215,0.0,0.0,97,0.00,,-RA,0.30,VWS V14.01,2013-08-17 13:28:00,
2013-08-17 09:33:00,61.8,60.9,30.14,SW,215,0.0,0.0,97,0.00,,-RA,0.30,VWS V14.01,2013-08-17 13:33:00,
2013-08-17 09:38:00,61.8,60.9,30.13,East,82,0.0,0.0,97,0.00,,-RA,0.30,VWS V14.01,2013-08-17 13:38:00,
2013-08-17 09:43:00,61.8,60.9,30.13,SSW,205,0.0,0.0,97,0.00,,-RA,0.30,VWS V14.01,2013-08-17 13:43:00,
2013-08-17 09:48:00,61.9,61.0,30.14,SW,236,0.0,0.0,97,0.00,,-RA,0.30,VWS V14.01,2013-08-17 13:48:00,
2013-08-17 09:53:00,61.9,61.0,30.14,SW,236,0.0,0.0,97,0.00,,-RA,0.30,VWS V14.01,2013-08-17 13:53:00,
2013-08-17 09:58:00,61.9,61.0,30.14,NE,53,0.0,0.0,97,0.00,,-RA,0.30,VWS V14.01,2013-08-17 13:58:00,
2013-08-17 10:03:00,62.0,61.1,30.14,South,188,0.0,0.0,97,0.00,,-RA,0.30,VWS V14.01,2013-08-17 14:03:00,
2013-08-17 10:08:00,62.1,61.2,30.14,South,188,0.0,0.0,97,0.00,,-RA,0.30,VWS V14.01,2013-08-17 14:08:00,
2013-08-17 10:13:00,62.2,61.3,30.14,SSW,207,0.0,0.0,97,0.00,,-RA,0.30,VWS V14.01,2013-08-17 14:13:00,
2013-08-17 10:18:00,62.2,61.3,30.14,ESE,123,0.0,0.0,97,0.00,,-RA,0.30,VWS V14.01,2013-08-17 14:18:00,
2013-08-17 10:23:00,62.3,61.4,30.14,ESE,123,0.0,0.0,97,0.00,,-RA,0.30,VWS V14.01,2013-08-17 14:23:00,
2013-08-17 10:28:00,62.3,61.2,30.14,NE,49,0.0,0.0,96,0.00,,-RA,0.30,VWS V14.01,2013-08-17 14:28:00,
2013-08-17 10:33:00,62.3,61.2,30.14,NE,49,0.0,0.0,96,0.00,,-RA,0.30,VWS V14.01,2013-08-17 14:33:00,
2013-08-17 10:38:00,62.4,61.2,30.15,SSE,165,0.0,0.0,96,0.00,,-RA,0.30,VWS V14.01,2013-08-17 14:38:00,
2013-08-17 10:43:00,62.5,61.6,30.15,South,172,0.0,0.0,97,0.00,,-RA,0.30,VWS V14.01,2013-08-17 14:43:00,
2013-08-17 10:48:00,62.6,61.5,30.14,NE,46,2.0,0.0,96,0.00,,-RA,0.30,VWS V14.01,2013-08-17 14:48:00,
2013-08-17 10:53:00,62.7,61.5,30.15,West,269,0.0,0.0,96,0.00,,-RA,0.30,VWS V14.01,2013-08-17 14:53:00,
2013-08-17 10:58:00,62.9,61.8,30.15,SSE,161,0.0,0.0,96,0.00,,-RA,0.30,VWS V14.01,2013-08-17 14:58:00,
2013-08-17 11:03:00,63.1,61.9,30.15,SSE,159,0.0,0.0,96,0.00,,OVC040,0.30,VWS V14.01,2013-08-17 15:03:00,
2013-08-17 11:08:00,63.2,61.8,30.15,South,186,0.0,0.0,95,0.00,,OVC040,0.30,VWS V14.01,2013-08-17 15:08:00,
2013-08-17 11:13:00,63.3,61.8,30.15,WSW,255,0.0,0.0,95,0.00,,OVC040,0.30,VWS V14.01,2013-08-17 15:13:00,
2013-08-17 11:18:00,63.2,61.8,30.15,NW,317,0.0,0.0,95,0.00,,OVC040,0.30,VWS V14.01,2013-08-17 15:18:00,
2013-08-17 11:23:00,63.2,61.8,30.15,SW,215,0.0,0.0,95,0.00,,OVC040,0.30,VWS V14.01,2013-08-17 15:23:00,
2013-08-17 11:28:00,63.1,61.7,30.15,SW,217,0.0,0.0,95,0.00,,OVC040,0.30,VWS V14.01,2013-08-17 15:28:00,
2013-08-17 11:33:00,63.1,61.9,30.15,SW,217,0.0,0.0,96,0.00,,OVC040,0.30,VWS V14.01,2013-08-17 15:33:00,
2013-08-17 11:38:00,63.2,62.0,30.15,SW,217,0.0,0.0,96,0.00,,OVC040,0.30,VWS V14.01,2013-08-17 15:38:00,
2013-08-17 11:43:00,63.2,62.0,30.15,SW,217,0.0,0.0,96,0.00,,OVC040,0.30,VWS V14.01,2013-08-17 15:43:00,
2013-08-17 11:48:00,63.1,61.9,30.15,SW,217,0.0,0.0,96,0.00,,OVC040,0.30,VWS V14.01,2013-08-17 15:48:00,
2013-08-17 11:53:00,63.1,61.9,30.15,SW,217,0.0,0.0,96,0.00,,OVC040,0.30,VWS V14.01,2013-08-17 15:53:00,
2013-08-17 11:58:00,63.2,62.0,30.15,SW,217,0.0,0.0,96,0.00,,OVC040,0.30,VWS V14.01,2013-08-17 15:58:00,
2013-08-17 12:03:00,63.2,62.0,30.15,SW,217,0.0,0.0,96,0.01,,-RA,0.31,VWS V14.01,2013-08-17 16:03:00,
2013-08-17 12:08:00,63.2,62.0,30.15,SW,217,0.0,0.0,96,0.03,,-RA,0.33,VWS V14.01,2013-08-17 16:08:00,
2013-08-17 12:13:00,63.3,62.1,30.15,SW,217,0.0,0.0,96,0.07,,-RA,0.37,VWS V14.01,2013-08-17 16:13:00,
2013-08-17 12:18:00,63.3,62.4,30.15,SW,217,0.0,0.0,97,0.10,,-RA,0.40,VWS V14.01,2013-08-17 16:18:00,
2013-08-17 12:23:00,63.4,62.5,30.15,SW,217,0.0,0.0,97,0.11,,-RA,0.41,VWS V14.01,2013-08-17 16:23:00,
2013-08-17 12:28:00,63.5,62.6,30.15,SW,217,0.0,0.0,97,0.12,,-RA,0.42,VWS V14.01,2013-08-17 16:28:00,
2013-08-17 12:33:00,63.6,62.7,30.14,SW,217,0.0,0.0,97,0.13,,-RA,0.43,VWS V14.01,2013-08-17 16:33:00,
2013-08-17 12:38:00,63.7,62.8,30.14,SW,217,0.0,0.0,97,0.13,,-RA,0.43,VWS V14.01,2013-08-17 16:38:00,
2013-08-17 12:43:00,63.7,62.8,30.14,SW,217,0.0,0.0,97,0.14,,-RA,0.44,VWS V14.01,2013-08-17 16:43:00,
2013-08-17 12:48:00,63.8,62.9,30.14,SE,132,0.0,0.0,97,0.14,,-RA,0.44,VWS V14.01,2013-08-17 16:48:00,
2013-08-17 12:53:00,63.9,63.0,30.14,SE,132,0.0,0.0,97,0.14,,-RA,0.44,VWS V14.01,2013-08-17 16:53:00,
2013-08-17 12:58:00,64.0,63.1,30.14,SE,132,0.0,0.0,97,0.14,,-RA,0.44,VWS V14.01,2013-08-17 16:58:00,
2013-08-17 13:03:00,64.2,63.3,30.14,SE,132,0.0,0.0,97,0.13,,-RA,0.44,VWS V14.01,2013-08-17 17:03:00,
2013-08-17 13:08:00,64.3,63.4,30.14,SE,132,0.0,0.0,97,0.12,,-RA,0.44,VWS V14.01,2013-08-17 17:08:00,
2013-08-17 13:13:00,64.4,63.5,30.14,SE,132,0.0,0.0,97,0.08,,-RA,0.45,VWS V14.01,2013-08-17 17:13:00,
2013-08-17 13:18:00,64.3,63.4,30.14,SSE,156,0.0,0.0,97,0.06,,-RA,0.45,VWS V14.01,2013-08-17 17:18:00,
2013-08-17 13:23:00,64.1,63.2,30.14,SE,126,0.0,0.0,97,0.04,,-RA,0.45,VWS V14.01,2013-08-17 17:23:00,
2013-08-17 13:28:00,64.2,63.3,30.14,SE,126,0.0,0.0,97,0.03,,-RA,0.46,VWS V14.01,2013-08-17 17:28:00,
2013-08-17 13:33:00,64.3,63.4,30.13,ESE,113,0.0,0.0,97,0.03,,-RA,0.46,VWS V14.01,2013-08-17 17:33:00,
2013-08-17 13:38:00,64.3,63.4,30.14,ESE,113,0.0,0.0,97,0.03,,-RA,0.46,VWS V14.01,2013-08-17 17:38:00,
2013-08-17 13:43:00,64.4,63.5,30.13,ESE,120,0.0,0.0,97,0.02,,-RA,0.46,VWS V14.01,2013-08-17 17:43:00,
2013-08-17 13:48:00,64.5,63.6,30.13,ESE,120,0.0,0.0,97,0.02,,-RA,0.46,VWS V14.01,2013-08-17 17:48:00,
2013-08-17 13:53:00,64.6,63.7,30.13,ESE,120,0.0,0.0,97,0.02,,-RA,0.46,VWS V14.01,2013-08-17 17:53:00,
2013-08-17 13:58:00,64.6,63.7,30.13,ESE,120,0.0,0.0,97,0.03,,-RA,0.47,VWS V14.01,2013-08-17 17:58:00,
2013-08-17 14:03:00,64.6,63.7,30.12,ESE,120,0.0,0.0,97,0.03,,-RA,0.47,VWS V14.01,2013-08-17 18:03:00,
2013-08-17 14:08:00,64.7,63.8,30.12,ESE,120,0.0,0.0,97,0.03,,-RA,0.47,VWS V14.01,2013-08-17 18:08:00,
2013-08-17 14:13:00,64.7,63.8,30.12,ESE,120,0.0,0.0,97,0.03,,-RA,0.48,VWS V14.01,2013-08-17 18:13:00,
2013-08-17 14:18:00,64.8,63.9,30.12,ESE,123,0.0,0.0,97,0.03,,-RA,0.48,VWS V14.01,2013-08-17 18:18:00,
2013-08-17 14:23:00,64.8,63.9,30.12,SE,126,1.0,0.0,97,0.03,,-RA,0.48,VWS V14.01,2013-08-17 18:23:00,
2013-08-17 14:28:00,64.8,63.9,30.11,SE,126,0.0,0.0,97,0.03,,-RA,0.48,VWS V14.01,2013-08-17 18:28:00,
2013-08-17 14:33:00,64.8,63.9,30.11,SW,224,0.0,0.0,97,0.02,,-RA,0.48,VWS V14.01,2013-08-17 18:33:00,
2013-08-17 14:38:00,64.9,64.0,30.11,SW,224,0.0,0.0,97,0.02,,-RA,0.48,VWS V14.01,2013-08-17 18:38:00,
2013-08-17 14:43:00,64.9,64.0,30.11,West,267,0.0,0.0,97,0.02,,-RA,0.48,VWS V14.01,2013-08-17 18:43:00,
2013-08-17 14:48:00,64.9,64.0,30.11,West,267,0.0,0.0,97,0.02,,-RA,0.48,VWS V14.01,2013-08-17 18:48:00,
2013-08-17 14:53:00,65.1,64.2,30.11,SW,222,0.0,0.0,97,0.02,,-RA,0.48,VWS V14.01,2013-08-17 18:53:00,
2013-08-17 14:58:00,65.2,64.3,30.11,ENE,78,0.0,0.0,97,0.01,,-RA,0.48,VWS V14.01,2013-08-17 18:58:00,
2013-08-17 15:03:00,65.4,64.5,30.10,SW,215,0.0,0.0,97,0.01,,-RA,0.48,VWS V14.01,2013-08-17 19:03:00,
2013-08-17 15:08:00,65.5,64.6,30.10,South,188,1.0,0.0,97,0.01,,-RA,0.48,VWS V14.01,2013-08-17 19:08:00,
2013-08-17 15:13:00,65.5,64.6,30.10,WSW,250,0.0,0.0,97,0.00,,-RA,0.48,VWS V14.01,2013-08-17 19:13:00,
2013-08-17 15:18:00,65.6,64.7,30.10,WSW,250,0.0,0.0,97,0.00,,-RA,0.48,VWS V14.01,2013-08-17 19:18:00,
2013-08-17 15:23:00,65.7,64.8,30.10,ENE,63,0.0,0.0,97,0.00,,-RA,0.48,VWS V14.01,2013-08-17 19:23:00,
2013-08-17 15:28:00,65.6,64.7,30.10,ENE,63,0.0,0.0,97,0.00,,-RA,0.48,VWS V14.01,2013-08-17 19:28:00,
2013-08-17 15:33:00,65.5,64.6,30.10,ENE,63,0.0,0.0,97,0.00,,-RA,0.48,VWS V14.01,2013-08-17 19:33:00,
2013-08-17 15:38:00,65.4,64.5,30.10,ENE,63,0.0,0.0,97,0.00,,-RA,0.48,VWS V14.01,2013-08-17 19:38:00,
2013-08-17 15:43:00,65.3,64.4,30.10,ENE,63,0.0,0.0,97,0.00,,-RA,0.48,VWS V14.01,2013-08-17 19:43:00,
2013-08-17 15:48:00,65.3,64.4,30.11,SE,144,0.0,0.0,97,0.00,,-RA,0.48,VWS V14.01,2013-08-17 19:48:00,
2013-08-17 15:53:00,65.2,64.3,30.11,SE,144,0.0,0.0,97,0.00,,-RA,0.48,VWS V14.01,2013-08-17 19:53:00,
2013-08-17 15:58:00,65.2,64.3,30.11,SE,144,0.0,0.0,97,0.00,,-RA,0.48,VWS V14.01,2013-08-17 19:58:00,
2013-08-17 16:03:00,65.2,64.3,30.11,South,175,1.0,0.0,97,0.00,,-RA,0.48,VWS V14.01,2013-08-17 20:03:00,
2013-08-17 16:08:00,65.2,64.3,30.10,SSW,203,0.0,0.0,97,0.00,,-RA,0.48,VWS V14.01,2013-08-17 20:08:00,
2013-08-17 16:13:00,65.2,64.3,30.10,SSW,203,0.0,0.0,97,0.00,,-RA,0.48,VWS V14.01,2013-08-17 20:13:00,
2013-08-17 16:18:00,65.2,64.3,30.10,SSW,203,0.0,0.0,97,0.00,,-RA,0.48,VWS V14.01,2013-08-17 20:18:00,
2013-08-17 16:23:00,65.2,64.3,30.10,SSW,203,0.0,0.0,97,0.00,,-RA,0.48,VWS V14.01,2013-08-17 20:23:00,
2013-08-17 16:28:00,65.2,64.3,30.10,SSW,203,0.0,0.0,97,0.00,,-RA,0.48,VWS V14.01,2013-08-17 20:28:00,
2013-08-17 16:33:00,65.2,64.3,30.10,SSW,203,0.0,0.0,97,0.00,,-RA,0.48,VWS V14.01,2013-08-17 20:33:00,
2013-08-17 16:38:00,65.3,64.4,30.10,SSW,203,0.0,0.0,97,0.00,,-RA,0.48,VWS V14.01,2013-08-17 20:38:00,
2013-08-17 16:43:00,65.2,64.3,30.10,SSW,203,0.0,0.0,97,0.00,,-RA,0.48,VWS V14.01,2013-08-17 20:43:00,
2013-08-17 16:48:00,65.2,64.3,30.10,SSW,203,0.0,0.0,97,0.00,,-RA,0.48,VWS V14.01,2013-08-17 20:48:00,
2013-08-17 16:53:00,65.2,64.3,30.11,SSW,203,0.0,0.0,97,0.00,,-RA,0.48,VWS V14.01,2013-08-17 20:53:00,
2013-08-17 16:58:00,65.1,64.2,30.11,SSW,203,0.0,0.0,97,0.00,,-RA,0.48,VWS V14.01,2013-08-17 20:58:00,
2013-08-17 17:03:00,65.2,64.3,30.10,SSW,203,0.0,0.0,97,0.00,,,0.48,VWS V14.01,2013-08-17 21:03:00,
2013-08-17 17:08:00,65.1,64.2,30.10,SSW,203,0.0,0.0,97,0.00,,,0.48,VWS V14.01,2013-08-17 21:08:00,
2013-08-17 17:13:00,65.1,64.2,30.10,SSW,203,0.0,0.0,97,0.00,,,0.48,VWS V14.01,2013-08-17 21:13:00,
2013-08-17 17:18:00,65.1,64.2,30.10,SSW,203,0.0,0.0,97,0.00,,,0.48,VWS V14.01,2013-08-17 21:18:00,
2013-08-17 17:23:00,65.2,64.3,30.10,SSW,203,0.0,0.0,97,0.01,,,0.49,VWS V14.01,2013-08-17 21:23:00,
2013-08-17 17:28:00,65.2,64.3,30.10,SSW,203,0.0,0.0,97,0.01,,,0.49,VWS V14.01,2013-08-17 21:28:00,
2013-08-17 17:33:00,65.2,64.3,30.10,SSW,203,0.0,0.0,97,0.02,,,0.50,VWS V14.01,2013-08-17 21:33:00,
2013-08-17 17:38:00,65.2,64.3,30.10,SSW,203,0.0,0.0,97,0.02,,,0.50,VWS V14.01,2013-08-17 21:38:00,
2013-08-17 17:43:00,65.2,64.3,30.10,SSW,203,0.0,0.0,97,0.03,,,0.51,VWS V14.01,2013-08-17 21:43:00,
2013-08-17 17:48:00,65.2,64.3,30.10,SSW,203,0.0,0.0,97,0.03,,,0.51,VWS V14.01,2013-08-17 21:48:00,
2013-08-17 17:53:00,65.2,64.3,30.10,SSW,203,0.0,0.0,97,0.03,,,0.51,VWS V14.01,2013-08-17 21:53:00,
2013-08-17 17:58:00,65.3,64.4,30.10,SSW,203,0.0,0.0,97,0.03,,,0.51,VWS V14.01,2013-08-17 21:58:00,
2013-08-17 18:04:00,65.3,64.4,30.10,SSW,203,0.0,0.0,97,0.03,,-RA,0.51,VWS V14.01,2013-08-17 22:04:00,
2013-08-17 18:09:00,65.2,64.3,30.10,SSW,203,0.0,0.0,97,0.04,,-RA,0.52,VWS V14.01,2013-08-17 22:09:00,
2013-08-17 18:14:00,65.3,64.4,30.10,SSW,203,0.0,0.0,97,0.04,,-RA,0.52,VWS V14.01,2013-08-17 22:14:00,
2013-08-17 18:19:00,65.3,64.4,30.10,SSW,203,0.0,0.0,97,0.04,,-RA,0.52,VWS V14.01,2013-08-17 22:19:00,
2013-08-17 18:24:00,65.3,64.4,30.10,SSW,203,0.0,0.0,97,0.03,,-RA,0.52,VWS V14.01,2013-08-17 22:24:00,
2013-08-17 18:29:00,65.4,64.5,30.10,SSW,203,0.0,0.0,97,0.03,,-RA,0.52,VWS V14.01,2013-08-17 22:29:00,
2013-08-17 18:34:00,65.3,64.4,30.10,SSW,203,0.0,0.0,97,0.03,,-RA,0.53,VWS V14.01,2013-08-17 22:34:00,
2013-08-17 18:39:00,65.2,64.3,30.10,SSW,203,0.0,0.0,97,0.03,,-RA,0.53,VWS V14.01,2013-08-17 22:39:00,
2013-08-17 18:44:00,65.2,64.3,30.10,SSW,203,0.0,0.0,97,0.03,,-RA,0.53,VWS V14.01,2013-08-17 22:44:00,
2013-08-17 18:49:00,65.3,64.4,30.11,SSW,203,0.0,0.0,97,0.02,,-RA,0.53,VWS V14.01,2013-08-17 22:49:00,
2013-08-17 18:54:00,65.3,64.4,30.11,SSW,203,0.0,0.0,97,0.03,,-RA,0.54,VWS V14.01,2013-08-17 22:54:00,
2013-08-17 18:59:00,65.3,64.4,30.11,SSE,156,0.0,0.0,97,0.03,,-RA,0.54,VWS V14.01,2013-08-17 22:59:00,
2013-08-17 19:04:00,65.2,64.3,30.11,SSE,156,0.0,0.0,97,0.03,,-RA,0.54,VWS V14.01,2013-08-17 23:04:00,
2013-08-17 19:09:00,65.2,64.3,30.11,SSE,156,0.0,0.0,97,0.02,,-RA,0.54,VWS V14.01,2013-08-17 23:09:00,
2013-08-17 19:14:00,65.2,64.3,30.11,SSE,156,0.0,0.0,97,0.03,,-RA,0.55,VWS V14.01,2013-08-17 23:14:00,
2013-08-17 19:19:00,65.1,64.2,30.11,SSE,156,0.0,0.0,97,0.03,,-RA,0.55,VWS V14.01,2013-08-17 23:19:00,
2013-08-17 19:24:00,65.1,64.2,30.11,SSE,156,0.0,0.0,97,0.04,,-RA,0.56,VWS V14.01,2013-08-17 23:24:00,
2013-08-17 19:29:00,65.0,64.1,30.11,SSE,156,0.0,0.0,97,0.04,,-RA,0.56,VWS V14.01,2013-08-17 23:29:00,
2013-08-17 19:34:00,65.0,64.1,30.11,SSE,156,0.0,0.0,97,0.03,,-RA,0.56,VWS V14.01,2013-08-17 23:34:00,
2013-08-17 19:39:00,65.0,64.1,30.11,SSE,156,0.0,0.0,97,0.04,,-RA,0.57,VWS V14.01,2013-08-17 23:39:00,
2013-08-17 19:44:00,65.0,64.1,30.11,SSE,156,0.0,0.0,97,0.04,,-RA,0.57,VWS V14.01,2013-08-17 23:44:00,
2013-08-17 19:49:00,65.0,64.1,30.11,SSE,156,0.0,0.0,97,0.04,,-RA,0.57,VWS V14.01,2013-08-17 23:49:00,
2013-08-17 19:54:00,65.1,64.2,30.11,SSE,156,0.0,0.0,97,0.05,,-RA,0.58,VWS V14.01,2013-08-17 23:54:00,
2013-08-17 19:59:00,65.1,64.2,30.11,SSE,156,0.0,0.0,97,0.04,,-RA,0.58,VWS V14.01,2013-08-17 23:59:00,
2013-08-17 20:04:00,65.1,64.2,30.11,SSE,156,0.0,0.0,97,0.04,,-RA,0.58,VWS V14.01,2013-08-18 00:04:00,
2013-08-17 20:09:00,65.1,64.2,30.11,SSE,156,0.0,0.0,97,0.05,,-RA,0.59,VWS V14.01,2013-08-18 00:09:00,
2013-08-17 20:14:00,65.1,64.2,30.11,SSE,156,0.0,0.0,97,0.04,,-RA,0.59,VWS V14.01,2013-08-18 00:14:00,
2013-08-17 20:19:00,65.1,64.2,30.11,SSE,156,0.0,0.0,97,0.04,,-RA,0.59,VWS V14.01,2013-08-18 00:19:00,
2013-08-17 20:24:00,65.0,64.1,30.11,SSE,156,0.0,0.0,97,0.03,,-RA,0.59,VWS V14.01,2013-08-18 00:24:00,
2013-08-17 20:29:00,65.0,64.1,30.11,SSE,156,0.0,0.0,97,0.03,,-RA,0.59,VWS V14.01,2013-08-18 00:29:00,
2013-08-17 20:34:00,65.0,64.1,30.11,SSE,156,0.0,0.0,97,0.03,,-RA,0.59,VWS V14.01,2013-08-18 00:34:00,
2013-08-17 20:39:00,65.0,64.1,30.12,SSE,156,0.0,0.0,97,0.02,,-RA,0.59,VWS V14.01,2013-08-18 00:39:00,
2013-08-17 20:44:00,65.0,64.1,30.11,SSE,156,0.0,0.0,97,0.02,,-RA,0.59,VWS V14.01,2013-08-18 00:44:00,
2013-08-17 20:49:00,65.0,64.1,30.11,SSE,156,0.0,0.0,97,0.02,,-RA,0.59,VWS V14.01,2013-08-18 00:49:00,
2013-08-17 20:54:00,65.0,64.1,30.11,SSE,156,0.0,0.0,97,0.01,,-RA,0.59,VWS V14.01,2013-08-18 00:54:00,
2013-08-17 20:59:00,65.0,64.1,30.12,SSE,156,0.0,0.0,97,0.01,,-RA,0.59,VWS V14.01,2013-08-18 00:59:00,
2013-08-17 21:04:00,65.0,64.1,30.11,SSE,156,0.0,0.0,97,0.01,,-RA,0.59,VWS V14.01,2013-08-18 01:04:00,
2013-08-17 21:09:00,65.0,64.1,30.11,SSE,156,0.0,0.0,97,0.01,,-RA,0.59,VWS V14.01,2013-08-18 01:09:00,
2013-08-17 21:14:00,65.0,64.1,30.12,SSE,156,0.0,0.0,97,0.00,,-RA,0.59,VWS V14.01,2013-08-18 01:14:00,
2013-08-17 21:19:00,65.0,64.1,30.12,SSE,156,0.0,0.0,97,0.00,,-RA,0.59,VWS V14.01,2013-08-18 01:19:00,
2013-08-17 21:24:00,65.0,64.1,30.12,SSE,156,0.0,0.0,97,0.00,,-RA,0.59,VWS V14.01,2013-08-18 01:24:00,
2013-08-17 21:29:00,65.0,64.1,30.12,SSE,156,0.0,0.0,97,0.00,,-RA,0.59,VWS V14.01,2013-08-18 01:29:00,
2013-08-17 21:34:00,65.1,64.2,30.12,SSE,156,0.0,0.0,97,0.00,,-RA,0.59,VWS V14.01,2013-08-18 01:34:00,
2013-08-17 21:39:00,65.0,64.1,30.12,SSE,156,0.0,0.0,97,0.00,,-RA,0.59,VWS V14.01,2013-08-18 01:39:00,
2013-08-17 21:44:00,65.0,64.1,30.12,SSE,156,0.0,0.0,97,0.00,,-RA,0.59,VWS V14.01,2013-08-18 01:44:00,
2013-08-17 21:49:00,65.0,64.1,30.12,SSE,156,0.0,0.0,97,0.00,,-RA,0.59,VWS V14.01,2013-08-18 01:49:00,
2013-08-17 21:54:00,64.9,64.0,30.12,SSE,156,0.0,0.0,97,0.00,,-RA,0.59,VWS V14.01,2013-08-18 01:54:00,
2013-08-17 21:59:00,64.9,64.0,30.12,SSE,156,0.0,0.0,97,0.00,,-RA,0.59,VWS V14.01,2013-08-18 01:59:00,
2013-08-17 22:04:00,64.9,64.0,30.12,SSE,156,0.0,0.0,97,0.00,,-RA,0.59,VWS V14.01,2013-08-18 02:04:00,
2013-08-17 22:09:00,65.0,64.1,30.12,SSE,156,0.0,0.0,97,0.00,,-RA,0.59,VWS V14.01,2013-08-18 02:09:00,
2013-08-17 22:14:00,65.0,64.1,30.13,SSE,156,0.0,0.0,97,0.00,,-RA,0.59,VWS V14.01,2013-08-18 02:14:00,
2013-08-17 22:19:00,65.0,64.1,30.13,SSE,156,0.0,0.0,97,0.00,,-RA,0.59,VWS V14.01,2013-08-18 02:19:00,
2013-08-17 22:24:00,65.0,64.1,30.13,SSE,156,0.0,0.0,97,0.00,,-RA,0.59,VWS V14.01,2013-08-18 02:24:00,
2013-08-17 22:29:00,65.0,64.1,30.13,SSE,156,0.0,0.0,97,0.00,,-RA,0.59,VWS V14.01,2013-08-18 02:29:00,
2013-08-17 22:34:00,65.0,64.1,30.13,SSE,156,0.0,0.0,97,0.00,,-RA,0.59,VWS V14.01,2013-08-18 02:34:00,
2013-08-17 22:39:00,65.0,64.1,30.13,SSE,156,0.0,0.0,97,0.00,,-RA,0.59,VWS V14.01,2013-08-18 02:39:00,
2013-08-17 22:44:00,65.0,64.1,30.13,SSE,156,0.0,0.0,97,0.00,,-RA,0.59,VWS V14.01,2013-08-18 02:44:00,
2013-08-17 22:49:00,65.0,64.1,30.13,SSE,156,0.0,0.0,97,0.00,,-RA,0.59,VWS V14.01,2013-08-18 02:49:00,
2013-08-17 22:54:00,65.0,64.1,30.13,SSE,156,0.0,0.0,97,0.00,,-RA,0.59,VWS V14.01,2013-08-18 02:54:00,
2013-08-17 22:59:00,65.1,64.2,30.14,SSE,156,0.0,0.0,97,0.00,,-RA,0.59,VWS V14.01,2013-08-18 02:59:00,
2013-08-17 23:04:00,65.1,64.2,30.14,SSE,156,0.0,0.0,97,0.00,,-RA,0.59,VWS V14.01,2013-08-18 03:04:00,
2013-08-17 23:09:00,65.1,64.2,30.14,SSE,156,0.0,0.0,97,0.00,,-RA,0.59,VWS V14.01,2013-08-18 03:09:00,
2013-08-17 23:14:00,65.2,64.3,30.13,SSE,156,0.0,0.0,97,0.00,,-RA,0.59,VWS V14.01,2013-08-18 03:14:00,
2013-08-17 23:19:00,65.2,64.3,30.14,SSE,156,0.0,0.0,97,0.01,,-RA,0.60,VWS V14.01,2013-08-18 03:19:00,
2013-08-17 23:24:00,65.2,64.3,30.14,SSE,156,0.0,0.0,97,0.01,,-RA,0.60,VWS V14.01,2013-08-18 03:24:00,
2013-08-17 23:29:00,65.2,64.6,30.13,SSE,156,0.0,0.0,98,0.01,,-RA,0.60,VWS V14.01,2013-08-18 03:29:00,
2013-08-17 23:34:00,65.2,64.6,30.14,SSE,156,0.0,0.0,98,0.01,,-RA,0.60,VWS V14.01,2013-08-18 03:34:00,
2013-08-17 23:39:00,65.2,64.3,30.14,SSE,156,0.0,0.0,97,0.01,,-RA,0.60,VWS V14.01,2013-08-18 03:39:00,
2013-08-17 23:44:00,65.2,64.6,30.14,SSE,156,0.0,0.0,98,0.01,,-RA,0.60,VWS V14.01,2013-08-18 03:44:00,
2013-08-17 23:49:00,65.2,64.6,30.13,SSE,156,0.0,0.0,98,0.01,,-RA,0.60,VWS V14.01,2013-08-18 03:49:00,
2013-08-17 23:54:00,65.2,64.6,30.13,SSE,156,0.0,0.0,98,0.01,,-RA,0.60,VWS V14.01,2013-08-18 03:54:00,
2013-08-17 23:59:00,65.3,64.7,30.13,SSE,156,0.0,0.0,98,0.01,,-RA,0.60,VWS V14.01,2013-08-18 03:59:00,